Погода в Петркув-Трибунальски

Польша     51°24′23″N   19°41′35″E
темп.,
°C
ветер,
м/с
пор.,
м/с
влажн.,
%
обл.,
%
осадки,
мм/ч
давл.,
гПа
погр.,
м
3 марта, ср
ср301:00+2з11880 0.0 103322
04:00+1юз22890 0.0 103122
07:00+2юз22900 0.0 103122
10:00+7юз23670 0.0 1030287
13:00+11юз34530 0.0 1027473
16:00+11юз23620 0.0 102487
19:00+7юз33690 0.0 102324
22:00+5зюз47750 0.0 1021105
4 марта, чт
чт401:00+4зюз5118417 0.0 1019254
04:00+4зюз5128490 0.0 1017253
07:00+4з6148862 0.0 1016417
10:00+5з7108688 0.0 1015775
13:00+7з7117294 0.1 1014988
16:00+6зсз7117460 0.0 1012847
19:00+2ссз588066 0.0 1013773
22:00+2зсз3579100 0.0 1014413
5 марта, пт
пт501:00+1с5896100 0.1 1014437
04:00−1ссв5881100 0.1 1015604
07:00−2ссв5977100 0.1 1018619
10:00+1с576296 0.0 10191112
13:00+3с565093 0.1 10201633
16:00+2ссз455074 0.2 10211551
19:00−1сз236274 0.4 102338
22:00−1ссз236655 0.0 102577
6 марта, сб
сб601:00−1зсз246973 0.0 1027100
04:00−2сз367761 0.0 1028243
07:00−2сз478036 0.0 1029504
10:00+1ссз57490 0.0 10301408
13:00+3сз453811 0.0 10301865
16:00+2зсз474787 0.0 10301638
19:00−1з366060 0.0 1030103
22:00−2зюз410600 0.0 1029252
7 марта, вс
вс701:00−1зюз612560 0.0 1028408
04:00−1зюз714540 0.0 1025532
07:00−1зюз814533 0.0 1024678
10:00+2зсз9126267 0.0 10231118
13:00+1зсз8117184 0.0 10221062
16:00+1зсз71070100 0.0 10201073
19:00+1сз41173100 0.1 1020634
22:000зсз398194 0.0 1020723